JH4XSY-13 Weather Reports


Display with metric or nautical units.
time (UTC)temp
F
wind
direction
speed
MPH
gust
MPH
rain 1hr
in
rain 24hr
in
rain mn
in
humidity
%
barometer
mb
20260505170804 57 0.0 0.0 0.00 0.00 0.00 67
20260505163806 57 0.0 0.0 0.00 0.00 0.00 67
20260505160806 58 0.0 0.0 0.00 0.00 0.00 66
20260505150805 59 0.0 0.0 0.00 0.00 0.00 58
20260505123805 60 0.0 0.0 0.00 0.00 0.00 46
20260505120806 60 0.0 0.0 0.00 0.00 0.00 45
20260505113805 61 0.0 0.0 0.00 0.00 0.00 44
20260505110806 62 0.0 0.0 0.00 0.00 0.00 43
20260505100806 64 0.0 0.0 0.00 0.00 0.00 41
20260505093806 65 0.0 0.0 0.00 0.00 0.00 41
20260505090806 66 0.0 0.0 0.00 0.00 0.00 40
20260505083803 68 0.0 0.0 0.00 0.00 0.00 39
20260505080803 70 0.0 0.0 0.00 0.00 0.00 38
20260505073806 71 0.0 0.0 0.00 0.00 0.00 35
20260505070806 77 0.0 0.0 0.00 0.00 0.00 27
20260505063804 83 0.0 0.0 0.00 0.00 0.00 26
20260505060804 83 0.0 0.0 0.00 0.00 0.00 27
20260505053806 82 0.0 0.0 0.00 0.00 0.00 26
20260505050806 80 0.0 0.0 0.00 0.00 0.00 26
20260505040804 75 0.0 0.0 0.00 0.00 0.00 28
20260505033804 73 0.0 0.0 0.00 0.00 0.00 28
20260505030805 71 0.0 0.0 0.00 0.00 0.00 29
20260505023806 71 0.0 0.0 0.00 0.00 0.00 31
20260505020805 68 0.0 0.0 0.00 0.00 0.00 34
20260505013806 66 0.0 0.0 0.00 0.00 0.00 36
20260505010804 65 0.0 0.0 0.00 0.00 0.00 39
20260505003806 63 0.0 0.0 0.00 0.00 0.00 39
20260505000805 62 0.0 0.0 0.00 0.00 0.00 39
20260504233805 61 0.0 0.0 0.00 0.00 0.00 40
20260504230805 60 0.0 0.0 0.00 0.00 0.00 40
20260504223804 59 0.0 0.0 0.00 0.00 0.00 41
20260504220804 58 0.0 0.0 0.00 0.00 0.00 42
20260504213806 56 0.0 0.0 0.00 0.00 0.00 43
20260504210806 55 0.0 0.0 0.00 0.00 0.00 43
20260504203806 54 0.0 0.0 0.00 0.00 0.00 43
20260504200806 53 0.0 0.0 0.00 0.00 0.00 45
20260504193804 54 0.0 0.0 0.00 0.00 0.00 46
20260504190806 54 0.0 0.0 0.00 0.00 0.00 44
20260504183803 55 0.0 0.0 0.00 0.00 0.00 43
20260504180806 56 0.0 0.0 0.00 0.00 0.00 42
20260504173803 57 0.0 0.0 0.00 0.00 0.00 41